Погода в Абае

Россия / Республика Алтай     50°25′59″N   85°03′19″E
темп.,
°C
ветер,
м/с
пор.,
м/с
влажн.,
%
обл.,
%
осадки,
мм/ч
давл.,
гПа
погр.,
м
13 июня, вс
вс1301:00+5ссз119489 0.7 101692
04:00+3юв119365 0.3 101619
07:00+4вюв008876 0.7 1017130
10:00+7з117485 0.7 1016780
13:00+9с3368100 1.8 10151063
16:00+8ссв457480 0.6 1017899
19:00+9с357068 0.6 10171118
22:00+7с228024 0.1 101828
14 июня, пн
пн1401:00+4с228865 0.1 102040
04:00+3св129190 0.0 102038
07:00+4св11865 0.0 1020134
10:00+10с245921 0.0 10171213
13:00+12с455875 0.1 10161401
16:00+13с565884 0.1 10151603
19:00+13ссв47605 0.1 10151439
22:00+7с3389100 0.0 101736
15 июня, вт
вт1501:00+5с339740 0.0 101844
04:00+6ссв239177 0.0 1017232
07:00+7ссв2387100 0.0 1018356
10:00+8ссз2380100 0.0 1017544
13:00+11ссз346582 0.0 10171062
16:00+15ссз34584 0.0 10151235
19:00+15с35616 0.0 10151138
22:00+8с22890 0.0 101621
16 июня, ср
ср1601:00+5ссв22933 0.0 101820
04:00+4св11940 0.0 101811
07:00+7ююв01894 0.0 101897
10:00+14ссз11655 0.0 1016629
13:00+18зсз11480 0.0 10141401
16:00+20ссз21421 0.0 10121626
19:00+18ссв34581 0.0 1013578
22:00+11с227627 0.0 101514
17 июня, чт
чт1701:00+8ссв21895 0.0 101612
04:00+6всв01890 0.0 101610
07:00+9вюв00820 0.0 101678
10:00+16зюз10610 0.0 1014473
13:00+20зсз11420 0.0 10111621
16:00+22зсз22344 0.0 10101879
19:00+20з125641 0.0 1009640
22:00+13ссв11765 0.0 101111